{"data":{"norad_id":66162,"epoch":"2026-05-25T04:45:04.189824Z","epoch_age_seconds":51185,"freshness":"FRESH","line1":"1 66162U 25240S   26145.19796516  .00027661  00000+0  94160-3 0  9990","line2":"2 66162  53.1587  67.3251 0001637  89.6046 270.5142 15.30233029 33708","mean_motion":15.30233029,"eccentricity":0.0001637,"inclination_deg":53.1587,"raan_deg":67.3251,"arg_perigee_deg":89.6046,"mean_anomaly_deg":270.5142,"bstar":0.0009416,"rev_number":3370,"period_min":94.103314508969,"perigee_km":473.99457496251,"apogee_km":476.23833014287,"semimajor_km":6853.2534525527,"source":"CELESTRAK","updated_at":"2026-05-25T13:38:21.072215Z"}}